K5VP Weather Reports


Display with metric or nautical units.
time (UTC)temp
F
wind
direction
speed
MPH
gust
MPH
rain 1hr
in
rain 24hr
in
rain mn
in
humidity
%
barometer
mb
20220629230047 70 124 0.0 2.0 0.00 0.00 0.00 61 1035.8
20220629225527 70 11 0.0 0.0 0.00 0.00 0.00 60 1035.9
20220629225017 70 136 0.0 0.0 0.00 0.00 0.00 61 1036.0
20220629224500 70 96 0.0 0.0 0.00 0.00 0.00 64 1036.0
20220629224001 70 89 0.0 0.0 0.00 0.00 0.00 61 1036.0
20220629223458 70 76 0.0 0.0 0.00 0.00 0.00 61 1036.1
20220629222948 70 76 0.0 0.0 0.00 0.00 0.00 60 1036.2
20220629222448 70 117 0.0 0.0 0.00 0.00 0.00 60 1036.2
20220629221936 70 219 0.0 1.0 0.00 0.00 0.00 61 1036.2
20220629221428 70 117 0.0 0.0 0.00 0.00 0.00 60 1036.3
20220629220932 70 119 0.0 0.0 0.00 0.00 0.00 61 1036.3
20220629220410 70 119 0.0 0.0 0.00 0.00 0.00 62 1036.4
20220629215913 70 120 0.0 0.0 0.00 0.00 0.00 60 1036.4
20220629215419 70 98 0.0 1.0 0.00 0.00 0.00 59 1036.5
20220629214900 71 100 0.0 0.0 0.00 0.00 0.00 62 1036.5
20220629214342 71 100 0.0 0.0 0.00 0.00 0.00 59 1036.5
20220629213841 71 100 0.0 0.0 0.00 0.00 0.00 60 1036.6
20220629213348 71 100 0.0 0.0 0.00 0.00 0.00 58 1036.6
20220629212840 71 300 0.0 0.0 0.00 0.00 0.00 57 1036.7
20220629212325 72 94 0.0 0.0 0.00 0.00 0.00 57 1036.6
20220629211829 71 57 0.0 0.0 0.00 0.00 0.00 59 1036.7
20220629211325 71 75 0.0 0.0 0.00 0.00 0.00 60 1036.7
20220629210823 71 77 0.0 0.0 0.00 0.00 0.00 59 1036.8
20220629210303 70 50 0.0 0.0 0.00 0.00 0.00 59 1036.9
20220629205757 70 50 0.0 0.0 0.00 0.00 0.00 64 1036.9
20220629205254 69 269 0.0 0.0 0.00 0.00 0.00 63 1036.9
20220629204759 68 269 0.0 0.0 0.00 0.00 0.00 62 1036.9
20220629204238 68 269 0.0 0.0 0.00 0.00 0.00 63 1037.0
20220629203722 69 101 0.0 0.0 0.00 0.00 0.00 62 1037.1
20220629203219 68 48 0.0 0.0 0.00 0.00 0.00 66 1037.1
20220629202718 67 160 0.0 1.0 0.00 0.00 0.00 64 1037.1
20220629202223 67 180 0.0 3.0 0.00 0.00 0.00 62 1037.2
20220629201729 67 108 0.0 3.0 0.00 0.00 0.00 63 1037.2
20220629201208 68 209 0.0 3.0 0.00 0.00 0.00 60 1037.3
20220629200651 68 117 0.0 0.0 0.00 0.00 0.00 61 1037.4
20220629200157 68 357 0.0 0.0 0.00 0.00 0.00 63 1037.4
20220629195654 67 85 0.0 0.0 0.00 0.00 0.00 65 1037.5
20220629195154 67 127 0.0 1.0 0.00 0.00 0.00 63 1037.4
20220629194632 67 101 0.0 0.0 0.00 0.00 0.00 64 1037.5
20220629194113 67 69 0.0 0.0 0.00 0.00 0.00 64 1037.6
20220629193601 66 6 0.0 0.0 0.00 0.00 0.00 67 1037.6
20220629193040 66 96 0.0 0.0 0.00 0.00 0.00 66 1037.7
20220629192536 65 101 0.0 0.0 0.00 0.00 0.00 72 1037.7
20220629192032 64 101 0.0 0.0 0.00 0.00 0.00 67 1037.7
20220629191531 64 78 0.0 0.0 0.00 0.00 0.00 66 1037.8
20220629191029 64 89 0.0 0.0 0.00 0.00 0.00 68 1037.7
20220629190535 64 88 0.0 0.0 0.00 0.00 0.00 70 1037.8
20220629190032 63 96 0.0 0.0 0.00 0.00 0.00 69 1037.8
20220629185515 62 96 0.0 0.0 0.00 0.00 0.00 74 1037.8
20220629185007 61 98 0.0 0.0 0.00 0.00 0.00 75 1037.9
20220629184458 61 112 0.0 0.0 0.00 0.00 0.00 73 1038.0
20220629183940 61 118 0.0 0.0 0.00 0.00 0.00 74 1038.0
20220629183443 60 131 0.0 0.0 0.00 0.00 0.00 75 1038.0
20220629182940 60 165 0.0 0.0 0.00 0.00 0.00 75 1038.1
20220629182423 60 90 0.0 0.0 0.00 0.00 0.00 76 1038.0
20220629181909 59 51 0.0 0.0 0.00 0.00 0.00 79 1038.0
20220629181351 59 4 0.0 2.0 0.00 0.00 0.00 77 1038.0
20220629180836 59 77 0.0 0.0 0.00 0.00 0.00 78 1038.1
20220629180317 59 76 0.0 0.0 0.00 0.00 0.00 77 1038.1
20220629175815 59 60 0.0 0.0 0.00 0.00 0.00 77 1038.2
20220629175318 59 36 0.0 0.0 0.00 0.00 0.00 77 1038.2
20220629174758 60 17 0.0 0.0 0.00 0.00 0.00 78 1038.2
20220629174237 59 17 0.0 0.0 0.00 0.00 0.00 78 1038.2
20220629173737 59 86 0.0 0.0 0.00 0.00 0.00 77 1038.2
20220629173217 59 89 0.0 0.0 0.00 0.00 0.00 76 1038.1
20220629172709 59 86 0.0 0.0 0.00 0.00 0.00 79 1038.2
20220629172211 59 86 0.0 0.0 0.00 0.00 0.00 78 1038.1
20220629171653 59 87 0.0 0.0 0.00 0.00 0.00 78 1038.2
20220629171154 58 86 0.0 0.0 0.00 0.00 0.00 78 1038.2
20220629170650 59 86 0.0 0.0 0.00 0.00 0.00 78 1038.2
20220629170128 59 86 0.0 0.0 0.00 0.00 0.00 78 1038.2
20220629165628 59 86 0.0 0.0 0.00 0.00 0.00 80 1038.2
20220629165134 59 87 0.0 0.0 0.00 0.00 0.00 83 1038.2
20220629164638 58 91 0.0 0.0 0.00 0.00 0.00 83 1038.2
20220629164125 57 94 0.0 0.0 0.00 0.00 0.00 83 1038.2
20220629163619 58 98 0.0 0.0 0.00 0.00 0.00 82 1038.2
20220629163113 57 89 0.0 0.0 0.00 0.00 0.00 85 1038.2
20220629162619 57 89 0.0 0.0 0.00 0.00 0.00 86 1038.3
20220629162115 57 89 0.0 0.0 0.00 0.00 0.00 87 1038.3
20220629161609 57 89 0.0 0.0 0.00 0.00 0.00 86 1038.3
20220629161103 56 89 0.0 0.0 0.00 0.00 0.00 84 1038.4
20220629160552 56 89 0.0 0.0 0.00 0.00 0.00 85 1038.3
20220629160056 56 90 0.0 0.0 0.00 0.00 0.00 87 1038.2
20220629155603 56 89 0.0 0.0 0.00 0.00 0.00 87 1038.2
20220629155056 56 89 0.0 0.0 0.00 0.00 0.00 87 1038.2
20220629154556 56 89 0.0 0.0 0.00 0.00 0.00 87 1038.2
20220629154056 55 89 0.0 0.0 0.00 0.00 0.00 87 1038.2
20220629153539 55 89 0.0 0.0 0.00 0.00 0.00 88 1038.2
20220629153041 55 89 0.0 0.0 0.00 0.00 0.00 88 1038.1
20220629152524 55 89 0.0 0.0 0.00 0.00 0.00 89 1038.2
20220629152009 55 89 0.0 0.0 0.00 0.00 0.00 89 1038.1
20220629151514 55 88 0.0 0.0 0.00 0.00 0.00 90 1038.2
20220629151003 55 88 0.0 0.0 0.00 0.00 0.00 89 1038.2
20220629150441 55 87 0.0 0.0 0.00 0.00 0.00 89 1038.1
20220629145924 55 88 0.0 0.0 0.00 0.00 0.00 90 1038.1
20220629145415 55 88 0.0 0.0 0.00 0.00 0.00 90 1038.0
20220629144920 55 87 0.0 0.0 0.00 0.00 0.00 90 1038.0
20220629144418 55 88 0.0 0.0 0.00 0.00 0.00 90 1037.9
20220629143922 55 88 0.0 0.0 0.00 0.00 0.00 90 1037.8
20220629143427 55 88 0.0 0.0 0.00 0.00 0.00 88 1037.8
20220629142916 55 88 0.0 0.0 0.00 0.00 0.00 88 1037.7
20220629142411 55 88 0.0 0.0 0.00 0.00 0.00 87 1037.7
20220629141909 55 88 0.0 0.0 0.00 0.00 0.00 87 1037.8
20220629141359 55 88 0.0 0.0 0.00 0.00 0.00 87 1037.8
20220629140847 55 88 0.0 0.0 0.00 0.00 0.00 88 1037.8
20220629140330 54 88 0.0 0.0 0.00 0.00 0.00 87 1037.7
20220629135813 54 88 0.0 0.0 0.00 0.00 0.00 87 1037.8
20220629135301 54 88 0.0 0.0 0.00 0.00 0.00 88 1037.7
20220629134750 54 88 0.0 0.0 0.00 0.00 0.00 88 1037.8
20220629134231 54 88 0.0 0.0 0.00 0.00 0.00 88 1037.7
20220629133714 54 88 0.0 0.0 0.00 0.00 0.00 89 1037.7
20220629133154 54 88 0.0 0.0 0.00 0.00 0.00 89 1037.7
20220629132642 54 88 0.0 0.0 0.00 0.00 0.00 89 1037.7
20220629132142 54 88 0.0 0.0 0.00 0.00 0.00 90 1037.7
20220629131639 54 88 0.0 0.0 0.00 0.00 0.00 91 1037.8
20220629131135 54 88 0.0 0.0 0.00 0.00 0.00 91 1037.7
20220629130617 54 88 0.0 0.0 0.00 0.00 0.00 91 1037.7
20220629130112 53 88 0.0 0.0 0.00 0.00 0.00 91 1037.7
20220629125605 53 88 0.0 0.0 0.00 0.00 0.00 91 1037.7
20220629125106 53 88 0.0 0.0 0.00 0.00 0.00 91 1037.7
20220629124605 53 88 0.0 0.0 0.00 0.00 0.00 91 1037.7
20220629124105 53 88 0.0 0.0 0.00 0.00 0.00 91 1037.6
20220629123555 53 88 0.0 0.0 0.00 0.00 0.00 90 1037.6
20220629123035 53 88 0.0 0.0 0.00 0.00 0.00 90 1037.6
20220629122519 54 88 0.0 0.0 0.00 0.00 0.00 91 1037.6
20220629122012 54 88 0.0 0.0 0.00 0.00 0.00 91 1037.5
20220629121510 54 88 0.0 0.0 0.00 0.00 0.00 90 1037.4
20220629121013 54 88 0.0 0.0 0.00 0.00 0.00 90 1037.4
20220629120458 54 88 0.0 0.0 0.00 0.00 0.00 90 1037.4
20220629115951 54 88 0.0 0.0 0.00 0.00 0.00 90 1037.3
20220629115434 54 88 0.0 0.0 0.00 0.00 0.00 90 1037.3
20220629114913 54 88 0.0 0.0 0.00 0.00 0.00 90 1037.2
20220629114356 54 88 0.0 0.0 0.00 0.00 0.00 89 1037.2
20220629113836 54 88 0.0 0.0 0.00 0.00 0.00 89 1037.2
20220629113336 54 88 0.0 0.0 0.00 0.00 0.00 89 1037.2
20220629112839 54 88 0.0 0.0 0.00 0.00 0.00 89 1037.2
20220629112345 54 88 0.0 0.0 0.00 0.00 0.00 89 1037.2
20220629111834 54 88 0.0 0.0 0.00 0.00 0.00 89 1037.2
20220629111317 54 88 0.0 0.0 0.00 0.00 0.00 89 1037.2
20220629110801 54 88 0.0 0.0 0.00 0.00 0.00 89 1037.1
20220629110308 54 88 0.0 0.0 0.00 0.00 0.00 89 1037.2
20220629105807 54 88 0.0 0.0 0.00 0.00 0.00 89 1037.2
20220629105314 54 88 0.0 0.0 0.00 0.00 0.00 89 1037.2
20220629104759 54 88 0.0 0.0 0.00 0.00 0.00 89 1037.3
20220629104251 54 88 0.0 0.0 0.00 0.00 0.00 89 1037.2
20220629103755 54 88 0.0 0.0 0.00 0.00 0.00 89 1037.2
20220629103254 54 88 0.0 0.0 0.00 0.00 0.00 89 1037.2
20220629102742 54 88 0.0 0.0 0.00 0.00 0.00 88 1037.2
20220629102220 54 88 0.0 0.0 0.00 0.00 0.00 88 1037.1
20220629101719 54 88 0.0 0.0 0.00 0.00 0.00 88 1037.1
20220629101223 54 88 0.0 0.0 0.00 0.00 0.00 88 1037.2
20220629100718 54 88 0.0 0.0 0.00 0.00 0.00 88 1037.1
20220629100222 54 88 0.0 0.0 0.00 0.00 0.00 87 1037.1
20220629095723 54 88 0.0 0.0 0.00 0.00 0.00 88 1037.1
20220629095219 53 88 0.0 0.0 0.00 0.00 0.00 89 1037.1
20220629094659 53 88 0.0 0.0 0.00 0.00 0.00 91 1037.1
20220629094140 52 88 0.0 0.0 0.00 0.00 0.00 91 1037.0
20220629093619 52 88 0.0 0.0 0.00 0.00 0.00 91 1037.1
20220629093059 52 88 0.0 0.0 0.00 0.00 0.00 91 1037.1
20220629092601 52 88 0.0 0.0 0.00 0.00 0.00 91 1037.1
20220629092057 52 88 0.0 0.0 0.00 0.00 0.00 91 1037.1
20220629091601 52 88 0.0 0.0 0.00 0.00 0.00 91 1037.0
20220629091058 52 88 0.0 0.0 0.00 0.00 0.00 91 1037.1
20220629090559 52 88 0.0 0.0 0.00 0.00 0.00 91 1037.0
20220629090048 52 88 0.0 0.0 0.00 0.00 0.00 91 1037.1
20220629085527 51 88 0.0 0.0 0.00 0.00 0.00 91 1037.0
20220629085005 51 88 0.0 0.0 0.00 0.00 0.00 91 1037.1
20220629084443 51 88 0.0 0.0 0.00 0.00 0.00 91 1037.1
20220629083936 51 88 0.0 0.0 0.00 0.00 0.00 91 1037.1
20220629083438 51 88 0.0 0.0 0.00 0.00 0.00 91 1037.1
20220629082941 51 88 0.0 0.0 0.00 0.00 0.00 90 1037.0
20220629082421 52 88 0.0 0.0 0.00 0.00 0.00 91 1037.0
20220629081902 52 88 0.0 0.0 0.00 0.00 0.00 91 1037.0
20220629081356 52 88 0.0 0.0 0.00 0.00 0.00 91 1037.1
20220629080900 52 88 0.0 0.0 0.00 0.00 0.00 91 1037.1
20220629080341 52 88 0.0 0.0 0.00 0.00 0.00 91 1037.1
20220629075848 52 88 0.0 0.0 0.00 0.00 0.00 92 1037.1
20220629075333 52 88 0.0 0.0 0.00 0.00 0.00 92 1037.1
20220629074829 52 88 0.0 0.0 0.00 0.00 0.00 92 1037.1
20220629074311 52 88 0.0 0.0 0.00 0.00 0.00 91 1037.1
20220629073756 52 88 0.0 0.0 0.00 0.00 0.00 92 1037.1
20220629073240 52 88 0.0 0.0 0.00 0.00 0.00 91 1037.1
20220629072735 52 88 0.0 0.0 0.00 0.00 0.00 91 1037.1
20220629072233 52 88 0.0 0.0 0.00 0.00 0.00 91 1037.1
20220629071729 52 88 0.0 0.0 0.00 0.00 0.00 91 1037.1
20220629071237 52 88 0.0 0.0 0.00 0.00 0.00 91 1037.0
20220629070723 52 88 0.0 0.0 0.00 0.00 0.00 91 1037.0
20220629070217 52 88 0.0 0.0 0.00 0.00 0.00 91 1037.0
20220629065701 52 88 0.0 0.0 0.00 0.00 0.00 90 1037.0
20220629065206 52 88 0.0 0.0 0.00 0.00 0.00 90 1037.0
20220629064702 52 88 0.0 0.0 0.00 0.00 0.00 90 1037.0
20220629064153 52 88 0.0 0.0 0.00 0.00 0.00 91 1037.0
20220629063645 52 88 0.0 0.0 0.00 0.00 0.00 91 1037.0
20220629063122 52 88 0.0 0.0 0.00 0.00 0.00 91 1036.9
20220629062625 52 88 0.0 0.0 0.00 0.00 0.00 90 1036.9
20220629062112 52 88 0.0 0.0 0.00 0.00 0.00 90 1036.9
20220629061551 53 88 0.0 0.0 0.00 0.00 0.00 90 1036.9
20220629061053 53 88 0.0 0.0 0.00 0.00 0.00 90 1036.8
20220629060600 53 88 0.0 0.0 0.00 0.00 0.00 90 1036.8
20220629060101 53 88 0.0 0.0 0.00 0.00 0.00 90 1036.7
20220629055559 53 88 0.0 0.0 0.00 0.00 0.00 90 1036.8
20220629055039 53 88 0.0 0.0 0.00 0.00 0.00 90 1036.8
20220629054537 53 88 0.0 0.0 0.00 0.00 0.00 89 1036.8
20220629054042 53 88 0.0 0.0 0.00 0.00 0.00 90 1036.8
20220629053537 53 88 0.0 0.0 0.00 0.00 0.00 90 1036.8
20220629053020 53 88 0.0 0.0 0.00 0.00 0.00 90 1036.8
20220629052512 53 88 0.0 0.0 0.00 0.00 0.00 89 1036.8
20220629052008 54 88 0.0 0.0 0.00 0.00 0.00 89 1036.7
20220629051512 54 88 0.0 0.0 0.00 0.00 0.00 89 1036.7
20220629050951 54 88 0.0 0.0 0.00 0.00 0.00 88 1036.6
20220629050440 54 88 0.0 0.0 0.00 0.00 0.00 88 1036.6
20220629045945 54 88 0.0 0.0 0.00 0.00 0.00 88 1036.5
20220629045447 54 88 0.0 0.0 0.00 0.00 0.00 87 1036.5
20220629044942 55 88 0.0 0.0 0.00 0.00 0.00 87 1036.5
20220629044448 55 88 0.0 0.0 0.00 0.00 0.00 87 1036.5
20220629043932 55 88 0.0 0.0 0.00 0.00 0.00 87 1036.4
20220629043424 55 88 0.0 0.0 0.00 0.00 0.00 86 1036.5
20220629042907 55 88 0.0 0.0 0.00 0.00 0.00 86 1036.4
20220629042346 56 88 0.0 0.0 0.00 0.00 0.00 86 1036.4
20220629041844 56 88 0.0 0.0 0.00 0.00 0.00 85 1036.3
20220629041349 56 88 0.0 0.0 0.00 0.00 0.00 85 1036.2
20220629040831 56 88 0.0 0.0 0.00 0.00 0.00 85 1036.2
20220629040329 57 88 0.0 0.0 0.00 0.00 0.00 83 1036.1
20220629035823 57 88 0.0 0.0 0.00 0.00 0.00 83 1036.0
20220629035330 57 88 0.0 0.0 0.00 0.00 0.00 83 1036.0
20220629034813 58 88 0.0 0.0 0.00 0.00 0.00 82 1036.0
20220629034309 58 88 0.0 0.0 0.00 0.00 0.00 81 1036.0
20220629033756 59 88 0.0 0.0 0.00 0.00 0.00 81 1036.1
20220629033254 59 88 0.0 0.0 0.00 0.00 0.00 80 1036.1
20220629032756 59 88 0.0 0.0 0.00 0.00 0.00 79 1036.1
20220629032242 59 88 0.0 0.0 0.00 0.00 0.00 79 1036.1
20220629031742 59 88 0.0 0.0 0.00 0.00 0.00 79 1036.2
20220629031232 60 88 0.0 0.0 0.00 0.00 0.00 79 1036.1
20220629030739 60 88 0.0 0.0 0.00 0.00 0.00 77 1036.1
20220629030244 60 89 0.0 0.0 0.00 0.00 0.00 77 1036.1
20220629025752 60 89 0.0 0.0 0.00 0.00 0.00 77 1036.1
20220629025256 61 89 0.0 0.0 0.00 0.00 0.00 76 1036.0
20220629024744 61 89 0.0 0.0 0.00 0.00 0.00 74 1036.0
20220629024235 61 89 0.0 0.0 0.00 0.00 0.00 75 1036.0
20220629023715 61 89 0.0 0.0 0.00 0.00 0.00 73 1036.0
20220629023218 62 87 0.0 0.0 0.00 0.00 0.00 73 1036.0
20220629022725 62 87 0.0 0.0 0.00 0.00 0.00 73 1036.0
20220629022208 62 89 0.0 0.0 0.00 0.00 0.00 73 1036.1
20220629021704 62 93 0.0 0.0 0.00 0.00 0.00 72 1036.0
20220629021211 63 88 0.0 0.0 0.00 0.00 0.00 72 1036.1
20220629020708 63 88 0.0 0.0 0.00 0.00 0.00 72 1036.0
20220629020208 63 91 0.0 0.0 0.00 0.00 0.00 73 1036.0
20220629015654 63 92 0.0 0.0 0.00 0.00 0.00 72 1036.0
20220629015136 63 90 0.0 0.0 0.00 0.00 0.00 71 1036.0
20220629014620 63 88 0.0 0.0 0.00 0.00 0.00 71 1036.1
20220629014107 63 88 0.0 0.0 0.00 0.00 0.00 70 1036.0
20220629013614 63 84 0.0 0.0 0.00 0.00 0.00 70 1036.0
20220629013115 64 87 0.0 0.0 0.00 0.00 0.00 70 1036.0
20220629012605 64 91 0.0 1.0 0.00 0.00 0.00 70 1036.0
20220629012058 64 84 0.0 0.0 0.00 0.00 0.00 70 1035.9
20220629011543 64 89 0.0 0.0 0.00 0.00 0.00 70 1035.9
20220629011044 64 89 0.0 0.0 0.00 0.00 0.00 70 1035.9
20220629010535 64 88 0.0 0.0 0.00 0.00 0.00 69 1035.8
20220629010018 65 87 0.0 0.0 0.00 0.00 0.00 68 1035.9
20220629005520 65 88 0.0 0.0 0.00 0.00 0.00 67 1035.9
20220629005001 65 87 0.0 0.0 0.00 0.00 0.00 67 1035.9
20220629004440 65 81 0.0 0.0 0.00 0.00 0.00 68 1036.0
20220629003944 65 76 0.0 0.0 0.00 0.00 0.00 67 1036.0
20220629003439 65 86 0.0 1.0 0.00 0.00 0.00 67 1036.0
20220629002924 65 298 0.0 4.0 0.00 0.00 0.00 66 1035.9
20220629002405 66 84 0.0 0.0 0.00 0.00 0.00 65 1036.0
20220629001854 66 82 0.0 0.0 0.00 0.00 0.00 66 1036.0
20220629001347 66 83 0.0 0.0 0.00 0.00 0.00 66 1036.0
20220629000842 66 84 0.0 0.0 0.00 0.00 0.00 66 1035.9
20220629000343 66 87 0.0 1.0 0.00 0.00 0.00 66 1036.0
20220628235842 66 84 0.0 0.0 0.00 0.00 0.00 65 1036.0
20220628235320 67 86 0.0 0.0 0.00 0.00 0.00 64 1036.0
20220628234802 67 87 0.0 0.0 0.00 0.00 0.00 66 1036.0
20220628234242 67 88 0.0 0.0 0.00 0.00 0.00 66 1036.0
20220628233740 67 101 0.0 0.0 0.00 0.00 0.00 69 1036.0
20220628233227 67 101 0.0 0.0 0.00 0.00 0.00 67 1036.0
20220628232720 67 124 0.0 0.0 0.00 0.00 0.00 66 1036.1
20220628232224 67 70 0.0 0.0 0.00 0.00 0.00 68 1036.1
20220628231724 67 44 0.0 0.0 0.00 0.00 0.00 70 1036.0
20220628231216 67 89 0.0 0.0 0.00 0.00 0.00 68 1035.9
20220628230708 66 86 0.0 0.0 0.00 0.00 0.00 69 1035.9